| time (UTC) | temp F | wind direction | speed MPH | gust MPH | rain 1hr in | rain 24hr in | rain mn in | humidity % | barometer mb |
| 20260504011002 | 74 | 94 | 0.0 | 3.0 | 0.00 | 0.00 | 0.00 | 46 | 1014.4 |
| 20260504010600 | 74 | 61 | 0.0 | 3.0 | 0.00 | 0.00 | 0.00 | 45 | 1014.4 |
| 20260504010502 | 74 | 98 | 0.0 | 2.0 | 0.00 | 0.00 | 0.00 | 45 | 1014.5 |
| 20260504005600 | 74 | 98 | 0.0 | 2.0 | 0.00 | 0.00 | 0.00 | 44 | 1014.6 |
| 20260504005502 | 74 | 98 | 0.0 | 2.0 | 0.00 | 0.00 | 0.00 | 44 | 1014.6 |
| 20260504005102 | 75 | 98 | 0.0 | 2.0 | 0.00 | 0.00 | 0.00 | 43 | 1014.7 |
| 20260504004603 | 75 | 98 | 0.0 | 3.0 | 0.00 | 0.00 | 0.00 | 43 | 1014.7 |
| 20260504004058 | 75 | 78 | 0.0 | 4.0 | 0.00 | 0.00 | 0.00 | 42 | 1014.6 |
| 20260504003601 | 76 | 113 | 1.0 | 4.0 | 0.00 | 0.00 | 0.00 | 41 | 1014.6 |
| 20260504003100 | 76 | 150 | 1.0 | 5.0 | 0.00 | 0.00 | 0.00 | 41 | 1014.6 |
| 20260504002558 | 76 | 158 | 1.0 | 5.0 | 0.00 | 0.00 | 0.00 | 41 | 1014.7 |
| 20260504002058 | 76 | 98 | 0.0 | 5.0 | 0.00 | 0.00 | 0.00 | 40 | 1014.7 |
| 20260504001606 | 77 | 188 | 2.0 | 8.0 | 0.00 | 0.00 | 0.00 | 40 | 1014.7 |
| 20260504001057 | 77 | 129 | 4.0 | 8.0 | 0.00 | 0.00 | 0.00 | 39 | 1014.8 |
| 20260504000558 | 77 | 142 | 1.0 | 6.0 | 0.00 | 0.00 | 0.00 | 40 | 1014.9 |
| 20260504000058 | 77 | 155 | 2.0 | 10.0 | 0.00 | 0.00 | 0.00 | 40 | 1015.0 |
| 20260503235555 | 78 | 194 | 5.0 | 10.0 | 0.00 | 0.00 | 0.00 | 38 | 1015.0 |
| 20260503235055 | 78 | 178 | 4.0 | 11.0 | 0.00 | 0.00 | 0.00 | 39 | 1015.0 |
| 20260503234555 | 78 | 153 | 2.0 | 11.0 | 0.00 | 0.00 | 0.00 | 38 | 1015.1 |
| 20260503234054 | 78 | 157 | 3.0 | 11.0 | 0.00 | 0.00 | 0.00 | 37 | 1015.2 |
| 20260503233554 | 78 | 246 | 4.0 | 10.0 | 0.00 | 0.00 | 0.00 | 38 | 1015.2 |
| 20260503233100 | 79 | 187 | 3.0 | 10.0 | 0.00 | 0.00 | 0.00 | 37 | 1015.3 |
| 20260503232553 | 78 | 188 | 1.0 | 8.0 | 0.00 | 0.00 | 0.00 | 38 | 1015.2 |
| 20260503232053 | 78 | 196 | 2.0 | 9.0 | 0.00 | 0.00 | 0.00 | 36 | 1015.2 |
| 20260503231554 | 78 | 161 | 4.0 | 9.0 | 0.00 | 0.00 | 0.00 | 36 | 1015.3 |
| 20260503231052 | 78 | 135 | 1.0 | 10.0 | 0.00 | 0.00 | 0.00 | 37 | 1015.3 |
| 20260503230552 | 78 | 217 | 4.0 | 10.0 | 0.00 | 0.00 | 0.00 | 38 | 1015.3 |
| 20260503230052 | 78 | 168 | 6.0 | 10.0 | 0.00 | 0.00 | 0.00 | 37 | 1015.2 |
| 20260503225551 | 78 | 148 | 4.0 | 11.0 | 0.00 | 0.00 | 0.00 | 37 | 1015.2 |
| 20260503225055 | 79 | 159 | 5.0 | 11.0 | 0.00 | 0.00 | 0.00 | 36 | 1015.3 |
| 20260503224551 | 78 | 175 | 2.0 | 10.0 | 0.00 | 0.00 | 0.00 | 36 | 1015.2 |
| 20260503224050 | 78 | 207 | 4.0 | 10.0 | 0.00 | 0.00 | 0.00 | 36 | 1015.3 |
| 20260503223549 | 79 | 207 | 4.0 | 10.0 | 0.00 | 0.00 | 0.00 | 37 | 1015.4 |
| 20260503223048 | 79 | 166 | 4.0 | 10.0 | 0.00 | 0.00 | 0.00 | 36 | 1015.4 |
| 20260503222549 | 79 | 198 | 5.0 | 11.0 | 0.00 | 0.00 | 0.00 | 35 | 1015.6 |
| 20260503222046 | 79 | 182 | 3.0 | 9.0 | 0.00 | 0.00 | 0.00 | 35 | 1015.7 |
| 20260503221547 | 79 | 160 | 3.0 | 11.0 | 0.00 | 0.00 | 0.00 | 34 | 1015.7 |
| 20260503221045 | 79 | 158 | 5.0 | 13.0 | 0.00 | 0.00 | 0.00 | 36 | 1015.8 |
| 20260503220544 | 79 | 161 | 5.0 | 13.0 | 0.00 | 0.00 | 0.00 | 37 | 1015.9 |
| 20260503220043 | 79 | 148 | 5.0 | 11.0 | 0.00 | 0.00 | 0.00 | 37 | 1015.9 |
| 20260503215543 | 79 | 167 | 0.0 | 11.0 | 0.00 | 0.00 | 0.00 | 38 | 1016.0 |
| 20260503215041 | 78 | 219 | 3.0 | 11.0 | 0.00 | 0.00 | 0.00 | 39 | 1016.2 |
| 20260503214541 | 78 | 140 | 3.0 | 13.0 | 0.00 | 0.00 | 0.00 | 39 | 1016.4 |
| 20260503214040 | 79 | 215 | 4.0 | 13.0 | 0.00 | 0.00 | 0.00 | 39 | 1016.5 |
| 20260503213539 | 79 | 136 | 4.0 | 9.0 | 0.00 | 0.00 | 0.00 | 40 | 1016.4 |
| 20260503213044 | 79 | 173 | 3.0 | 9.0 | 0.00 | 0.00 | 0.00 | 40 | 1016.4 |
| 20260503212538 | 79 | 112 | 3.0 | 9.0 | 0.00 | 0.00 | 0.00 | 38 | 1016.6 |
| 20260503212038 | 79 | 136 | 1.0 | 7.0 | 0.00 | 0.00 | 0.00 | 40 | 1016.7 |
| 20260503211538 | 78 | 129 | 4.0 | 8.0 | 0.00 | 0.00 | 0.00 | 39 | 1016.7 |
| 20260503211039 | 78 | 111 | 4.0 | 11.0 | 0.00 | 0.00 | 0.00 | 40 | 1016.8 |
| 20260503210536 | 78 | 229 | 4.0 | 10.0 | 0.00 | 0.00 | 0.00 | 41 | 1017.0 |
| 20260503210038 | 79 | 221 | 2.0 | 12.0 | 0.00 | 0.00 | 0.00 | 40 | 1017.1 |
| 20260503205535 | 78 | 115 | 3.0 | 12.0 | 0.00 | 0.00 | 0.00 | 40 | 1017.3 |
| 20260503205034 | 79 | 147 | 5.0 | 12.0 | 0.00 | 0.00 | 0.00 | 41 | 1017.4 |
| 20260503204534 | 79 | 177 | 3.0 | 12.0 | 0.00 | 0.00 | 0.00 | 39 | 1017.5 |
| 20260503204033 | 78 | 118 | 3.0 | 12.0 | 0.00 | 0.00 | 0.00 | 41 | 1017.4 |
| 20260503203531 | 79 | 216 | 4.0 | 9.0 | 0.00 | 0.00 | 0.00 | 38 | 1017.7 |
| 20260503203030 | 79 | 134 | 3.0 | 11.0 | 0.00 | 0.00 | 0.00 | 37 | 1017.7 |
| 20260503202530 | 79 | 184 | 3.0 | 11.0 | 0.00 | 0.00 | 0.00 | 40 | 1017.8 |
| 20260503202030 | 77 | 235 | 6.0 | 10.0 | 0.00 | 0.00 | 0.00 | 40 | 1017.9 |
| 20260503201529 | 78 | 92 | 3.0 | 12.0 | 0.00 | 0.00 | 0.00 | 39 | 1018.0 |
| 20260503201029 | 78 | 92 | 3.0 | 12.0 | 0.00 | 0.00 | 0.00 | 40 | 1018.1 |
| 20260503200528 | 78 | 229 | 4.0 | 10.0 | 0.00 | 0.00 | 0.00 | 38 | 1018.2 |
| 20260503200030 | 79 | 150 | 5.0 | 10.0 | 0.00 | 0.00 | 0.00 | 38 | 1018.3 |
| 20260503195530 | 80 | 157 | 2.0 | 8.0 | 0.00 | 0.00 | 0.00 | 37 | 1018.4 |
| 20260503195025 | 80 | 204 | 1.0 | 7.0 | 0.00 | 0.00 | 0.00 | 39 | 1018.4 |
| 20260503194525 | 79 | 183 | 2.0 | 9.0 | 0.00 | 0.00 | 0.00 | 39 | 1018.5 |
| 20260503194024 | 78 | 113 | 2.0 | 9.0 | 0.00 | 0.00 | 0.00 | 42 | 1018.6 |
| 20260503193523 | 77 | 170 | 4.0 | 7.0 | 0.00 | 0.00 | 0.00 | 41 | 1018.5 |
| 20260503193026 | 77 | 163 | 2.0 | 12.0 | 0.00 | 0.00 | 0.00 | 39 | 1018.6 |
| 20260503192521 | 77 | 177 | 5.0 | 12.0 | 0.00 | 0.00 | 0.00 | 39 | 1018.7 |
| 20260503192021 | 78 | 184 | 4.0 | 10.0 | 0.00 | 0.00 | 0.00 | 40 | 1018.8 |
| 20260503191521 | 78 | 171 | 3.0 | 8.0 | 0.00 | 0.00 | 0.00 | 39 | 1018.8 |
| 20260503191020 | 77 | 34 | 3.0 | 11.0 | 0.00 | 0.00 | 0.00 | 41 | 1018.9 |
| 20260503190520 | 77 | 156 | 4.0 | 11.0 | 0.00 | 0.00 | 0.00 | 41 | 1018.9 |
| 20260503190037 | 77 | 205 | 5.0 | 9.0 | 0.00 | 0.00 | 0.00 | 41 | 1019.1 |
| 20260503185517 | 77 | 192 | 4.0 | 9.0 | 0.00 | 0.00 | 0.00 | 40 | 1019.2 |
| 20260503185016 | 77 | 140 | 2.0 | 7.0 | 0.00 | 0.00 | 0.00 | 42 | 1019.3 |
| 20260503184515 | 78 | 236 | 4.0 | 7.0 | 0.00 | 0.00 | 0.00 | 41 | 1019.4 |
| 20260503184016 | 76 | 11 | 2.0 | 11.0 | 0.00 | 0.00 | 0.00 | 43 | 1019.6 |
| 20260503183514 | 75 | 184 | 5.0 | 11.0 | 0.00 | 0.00 | 0.00 | 44 | 1019.5 |
| 20260503183016 | 76 | 192 | 3.0 | 9.0 | 0.00 | 0.00 | 0.00 | 45 | 1019.6 |
| 20260503182512 | 75 | 207 | 4.0 | 9.0 | 0.00 | 0.00 | 0.00 | 45 | 1019.7 |
| 20260503182012 | 75 | 196 | 3.0 | 8.0 | 0.00 | 0.00 | 0.00 | 47 | 1019.7 |
| 20260503181512 | 76 | 223 | 4.0 | 10.0 | 0.00 | 0.00 | 0.00 | 45 | 1020.0 |
| 20260503181012 | 76 | 182 | 5.0 | 10.0 | 0.00 | 0.00 | 0.00 | 45 | 1020.1 |
| 20260503180511 | 76 | 150 | 3.0 | 11.0 | 0.00 | 0.00 | 0.00 | 45 | 1020.2 |
| 20260503180012 | 75 | 108 | 5.0 | 11.0 | 0.00 | 0.00 | 0.00 | 43 | 1020.4 |
| 20260503175509 | 75 | 155 | 4.0 | 10.0 | 0.00 | 0.00 | 0.00 | 44 | 1020.5 |
| 20260503175008 | 75 | 165 | 3.0 | 10.0 | 0.00 | 0.00 | 0.00 | 45 | 1020.5 |
| 20260503174507 | 75 | 173 | 2.0 | 8.0 | 0.00 | 0.00 | 0.00 | 46 | 1020.5 |
| 20260503174007 | 75 | 150 | 2.0 | 10.0 | 0.00 | 0.00 | 0.00 | 46 | 1020.6 |
| 20260503173506 | 75 | 99 | 3.0 | 10.0 | 0.00 | 0.00 | 0.00 | 46 | 1020.7 |
| 20260503173006 | 75 | 159 | 1.0 | 6.0 | 0.00 | 0.00 | 0.00 | 46 | 1020.9 |
| 20260503172505 | 75 | 145 | 2.0 | 8.0 | 0.00 | 0.00 | 0.00 | 46 | 1021.0 |
| 20260503172003 | 75 | 116 | 2.0 | 8.0 | 0.00 | 0.00 | 0.00 | 46 | 1021.1 |
| 20260503171502 | 74 | 121 | 2.0 | 9.0 | 0.00 | 0.00 | 0.00 | 48 | 1021.1 |
| 20260503171001 | 74 | 204 | 4.0 | 8.0 | 0.00 | 0.00 | 0.00 | 48 | 1021.1 |
| 20260503170502 | 73 | 160 | 1.0 | 12.0 | 0.00 | 0.00 | 0.00 | 49 | 1021.2 |
| 20260503150532 | 71 | 146 | 1.0 | 7.0 | 0.00 | 0.00 | 0.00 | 52 | 1021.6 |
| 20260503131059 | 64 | 128 | 0.0 | 0.0 | 0.00 | 0.00 | 0.00 | 66 | 1020.9 |
| 20260503130556 | 63 | 128 | 0.0 | 0.0 | 0.00 | 0.00 | 0.00 | 67 | 1020.9 |
| 20260503110536 | 57 | 55 | 0.0 | 0.0 | 0.00 | 0.00 | 0.00 | 71 | 1019.9 |
| 20260503081534 | 58 | 55 | 0.0 | 0.0 | 0.00 | 0.00 | 0.00 | 68 | 1019.7 |
| 20260503081016 | 58 | 55 | 0.0 | 0.0 | 0.00 | 0.00 | 0.00 | 68 | 1019.7 |
| 20260503080516 | 58 | 55 | 0.0 | 0.0 | 0.00 | 0.00 | 0.00 | 68 | 1019.7 |
| 20260503072512 | 59 | 55 | 0.0 | 0.0 | 0.00 | 0.00 | 0.00 | 68 | 1020.1 |
| 20260503072013 | 59 | 55 | 0.0 | 0.0 | 0.00 | 0.00 | 0.00 | 68 | 1020.1 |
| 20260503071516 | 59 | 55 | 0.0 | 0.0 | 0.00 | 0.00 | 0.00 | 67 | 1020.1 |
| 20260503071010 | 59 | 55 | 0.0 | 0.0 | 0.00 | 0.00 | 0.00 | 67 | 1020.1 |
| 20260503070509 | 59 | 55 | 0.0 | 0.0 | 0.00 | 0.00 | 0.00 | 67 | 1020.1 |
| 20260503055003 | 59 | 55 | 0.0 | 0.0 | 0.00 | 0.00 | 0.00 | 67 | 1020.3 |
| 20260503054506 | 59 | 55 | 0.0 | 0.0 | 0.00 | 0.00 | 0.00 | 67 | 1020.2 |
| 20260503054003 | 59 | 55 | 0.0 | 0.0 | 0.00 | 0.00 | 0.00 | 67 | 1020.1 |
| 20260503053504 | 59 | 55 | 0.0 | 0.0 | 0.00 | 0.00 | 0.00 | 68 | 1020.2 |
| 20260503053008 | 59 | 55 | 0.0 | 0.0 | 0.00 | 0.00 | 0.00 | 68 | 1020.3 |
| 20260503052502 | 59 | 55 | 0.0 | 0.0 | 0.00 | 0.00 | 0.00 | 68 | 1020.2 |
| 20260503052101 | 59 | 55 | 0.0 | 0.0 | 0.00 | 0.00 | 0.00 | 68 | 1020.3 |
| 20260503051601 | 60 | 55 | 0.0 | 0.0 | 0.00 | 0.00 | 0.00 | 68 | 1020.3 |
| 20260503051059 | 60 | 55 | 0.0 | 0.0 | 0.00 | 0.00 | 0.00 | 67 | 1020.1 |
| 20260503050601 | 60 | 55 | 0.0 | 0.0 | 0.00 | 0.00 | 0.00 | 67 | 1020.1 |
| 20260503050056 | 60 | 55 | 0.0 | 0.0 | 0.00 | 0.00 | 0.00 | 67 | 1020.1 |
| 20260503045556 | 60 | 55 | 0.0 | 0.0 | 0.00 | 0.00 | 0.00 | 66 | 1020.0 |
| 20260503045056 | 60 | 55 | 0.0 | 0.0 | 0.00 | 0.00 | 0.00 | 66 | 1020.0 |
| 20260503044556 | 60 | 55 | 0.0 | 0.0 | 0.00 | 0.00 | 0.00 | 66 | 1019.9 |
| 20260503044055 | 60 | 55 | 0.0 | 0.0 | 0.00 | 0.00 | 0.00 | 64 | 1019.8 |
| 20260503043556 | 61 | 55 | 0.0 | 0.0 | 0.00 | 0.00 | 0.00 | 64 | 1019.9 |
| 20260503043056 | 61 | 55 | 0.0 | 0.0 | 0.00 | 0.00 | 0.00 | 64 | 1020.0 |
| 20260503042555 | 61 | 55 | 0.0 | 0.0 | 0.00 | 0.00 | 0.00 | 63 | 1020.1 |
| 20260503042055 | 61 | 55 | 0.0 | 0.0 | 0.00 | 0.00 | 0.00 | 63 | 1020.2 |
| 20260503041555 | 61 | 55 | 0.0 | 0.0 | 0.00 | 0.00 | 0.00 | 63 | 1020.2 |
| 20260503041054 | 61 | 55 | 0.0 | 0.0 | 0.00 | 0.00 | 0.00 | 63 | 1020.1 |
| 20260503040554 | 61 | 55 | 0.0 | 0.0 | 0.00 | 0.00 | 0.00 | 63 | 1020.1 |
| 20260503040054 | 61 | 55 | 0.0 | 0.0 | 0.00 | 0.00 | 0.00 | 64 | 1020.0 |
| 20260503035554 | 61 | 55 | 0.0 | 0.0 | 0.00 | 0.00 | 0.00 | 63 | 1019.9 |
| 20260503035057 | 62 | 55 | 0.0 | 0.0 | 0.00 | 0.00 | 0.00 | 63 | 1019.9 |
| 20260503034554 | 62 | 55 | 0.0 | 0.0 | 0.00 | 0.00 | 0.00 | 62 | 1019.9 |
| 20260503034054 | 62 | 55 | 0.0 | 0.0 | 0.00 | 0.00 | 0.00 | 62 | 1019.8 |
| 20260503033553 | 62 | 55 | 0.0 | 0.0 | 0.00 | 0.00 | 0.00 | 62 | 1019.9 |
| 20260503033055 | 62 | 55 | 0.0 | 0.0 | 0.00 | 0.00 | 0.00 | 61 | 1019.9 |
| 20260503032555 | 62 | 55 | 0.0 | 0.0 | 0.00 | 0.00 | 0.00 | 61 | 1019.8 |
| 20260503032054 | 62 | 55 | 0.0 | 0.0 | 0.00 | 0.00 | 0.00 | 61 | 1019.6 |
| 20260503031553 | 63 | 55 | 0.0 | 0.0 | 0.00 | 0.00 | 0.00 | 61 | 1019.7 |
| 20260503031053 | 63 | 55 | 0.0 | 0.0 | 0.00 | 0.00 | 0.00 | 60 | 1019.8 |
| 20260503030552 | 63 | 55 | 0.0 | 0.0 | 0.00 | 0.00 | 0.00 | 60 | 1019.7 |
| 20260503030055 | 63 | 55 | 0.0 | 0.0 | 0.00 | 0.00 | 0.00 | 60 | 1019.6 |
| 20260503025552 | 63 | 55 | 0.0 | 0.0 | 0.00 | 0.00 | 0.00 | 59 | 1019.5 |
| 20260503025052 | 64 | 55 | 0.0 | 0.0 | 0.00 | 0.00 | 0.00 | 58 | 1019.4 |
| 20260503024601 | 64 | 55 | 0.0 | 0.0 | 0.00 | 0.00 | 0.00 | 57 | 1019.3 |
| 20260503024052 | 64 | 55 | 0.0 | 0.0 | 0.00 | 0.00 | 0.00 | 57 | 1019.3 |
| 20260503023554 | 65 | 55 | 0.0 | 0.0 | 0.00 | 0.00 | 0.00 | 57 | 1019.3 |
| 20260503023052 | 65 | 55 | 0.0 | 0.0 | 0.00 | 0.00 | 0.00 | 56 | 1019.3 |
| 20260503022550 | 65 | 55 | 0.0 | 0.0 | 0.00 | 0.00 | 0.00 | 56 | 1019.2 |
| 20260503022050 | 66 | 55 | 0.0 | 1.0 | 0.00 | 0.00 | 0.00 | 55 | 1019.0 |
| 20260503021557 | 66 | 55 | 0.0 | 2.0 | 0.00 | 0.00 | 0.00 | 55 | 1018.9 |
| 20260503021053 | 66 | 55 | 0.0 | 2.0 | 0.00 | 0.00 | 0.00 | 54 | 1018.8 |
| 20260503020550 | 66 | 55 | 0.0 | 2.0 | 0.00 | 0.00 | 0.00 | 54 | 1018.7 |
| 20260503020055 | 67 | 55 | 0.0 | 2.0 | 0.00 | 0.00 | 0.00 | 54 | 1018.6 |
| 20260503015550 | 67 | 55 | 0.0 | 3.0 | 0.00 | 0.00 | 0.00 | 54 | 1018.5 |
| 20260503015049 | 67 | 55 | 1.0 | 4.0 | 0.00 | 0.00 | 0.00 | 53 | 1018.4 |
| 20260503014620 | 67 | 55 | 2.0 | 4.0 | 0.00 | 0.00 | 0.00 | 52 | 1018.4 |
| 20260503014050 | 67 | 67 | 1.0 | 6.0 | 0.00 | 0.00 | 0.00 | 52 | 1018.4 |
| 20260503013550 | 68 | 90 | 1.0 | 6.0 | 0.00 | 0.00 | 0.00 | 52 | 1018.4 |
| 20260503013049 | 68 | 84 | 2.0 | 4.0 | 0.00 | 0.00 | 0.00 | 51 | 1018.3 |
| 20260503012553 | 68 | 78 | 0.0 | 3.0 | 0.00 | 0.00 | 0.00 | 50 | 1018.4 |
| 20260503012048 | 69 | 59 | 1.0 | 4.0 | 0.00 | 0.00 | 0.00 | 50 | 1018.3 |
| 20260503011601 | 69 | 69 | 2.0 | 6.0 | 0.00 | 0.00 | 0.00 | 49 | 1018.3 |